Regional Weather Roundup
Issued by NWS

Home | Current Version | Previous Version | Text Only | Print | Product List | Glossary Off
Versions: 1 2 3 4 5 6 7 8 9 10 11 12 13 14 15 16 17 18 19 20 21 22 23 24 25 26 27 28 29 30 31 32 33 34 35 36 37 38 39 40 41 42 43 44 45 46 47 48 49 50

403
ASUS45 KPSR 191110
RWRAZ

ARIZONA HOURLY REGIONAL WEATHER ROUNDUP
NATIONAL WEATHER SERVICE PHOENIX AZ
400 AM MST MON FEB 19 2018

NOTE: FAIR INDICATES FEW OR NO CLOUDS BELOW 12,000 FEET WITH NO
SIGNIFICANT WEATHER AND/OR OBSTRUCTIONS TO VISIBILITY.

AZZ001>003-036-191200-
NORTHWEST ARIZONA

CITY           SKY/WX    TMP DP  RH WIND       PRES   REMARKS
BULLHEAD CITY  CLEAR     59  28  31 S10G20    29.63R
KINGMAN          N/A     48  27  44 S24G33    29.60F
$$

AZZ004>008-015-016-018-191200-
NORTH CENTRAL ARIZONA

CITY           SKY/WX    TMP DP  RH WIND       PRES   REMARKS
GRAND CANYON   MOCLDY    37  31  78 SW23G33   29.59F WCI  26
WILLIAMS       MOCLDY    37  30  75 SW17G37   29.63F WCI  28
PRESCOTT       CLOUDY    46  37  71 SW18G32   29.67F
FLAGSTAFF      PTCLDY    35  32  88 SW25G37   29.64F WCI  23
PAYSON         HVY RAIN  43  41  93 SW10      29.75F
PAGE           PTCLDY    53  22  29 S17G26    29.43F
$$

AZZ009>014-017-191200-
NORTHEAST ARIZONA

CITY           SKY/WX    TMP DP  RH WIND       PRES   REMARKS
WINSLOW        PTCLDY    46  35  65 S31G40    29.65F
SAINT JOHNS    CLOUDY    45  34  65 SW16      29.72R
WINDOW ROCK    CLOUDY    40  35  83 SW22G32   29.69F WCI  30
SHOW LOW       CLOUDY    41  37  87 S30G36    29.73F
$$

AZZ540-542>544-546-548-191200-
GREATER PHOENIX AREA

CITY           SKY/WX    TMP DP  RH WIND       PRES   REMARKS
PHOENIX        MOCLDY    62  50  64 S7        29.70F
BUCKEYE        CLOUDY    57  55  94 S9        29.73F
LUKE AFB       PTCLDY    60  51  73 SW10      29.70F
DEER VALLEY    CLOUDY    59  49  69 S6        29.71F
SCOTTSDALE     CLOUDY    60  49  66 S6        29.73F
MESA-GATEWAY   PTCLDY    61  50  68 S18       29.75F
$$

AZZ539-553-191200-
SOUTHWEST MARICOPA COUNTY AND PINAL COUNTY

CITY           SKY/WX    TMP DP  RH WIND       PRES   REMARKS
CASA GRANDE      N/A     58  51  78 S13       29.77S
GILA BEND      FAIR      61  51  70 S16       29.73S
$$

AZZ503-504-507>509-191200-
SOUTHEAST ARIZONA

CITY           SKY/WX    TMP DP  RH WIND       PRES   REMARKS
TUCSON         MOCLDY    59  48  67 S8        29.82F
DAVIS-MONTHAN  MOCLDY    55  51  87 SE3       29.80F
NOGALES        LGT RAIN  51  50  96 S8        29.85F
SIERRA VISTA   LGT RAIN  50  45  81 SW15G25   29.86R
DOUGLAS        CLOUDY    52  46  80 S7        29.87F
SAFFORD        CLOUDY    52  49  89 E5        29.77F
$$

AZZ532-191200-
SOUTHWEST ARIZONA

CITY           SKY/WX    TMP DP  RH WIND       PRES   REMARKS
YUMA           CLEAR     55  37  50 CALM      29.74F
$$

CAZ041-043-047-048-061-525>527-560>570-191200-
SOUTHERN CALIFORNIA

CITY           SKY/WX    TMP DP  RH WIND       PRES   REMARKS
DOWNTOWN L.A.  MOCLDY    51  44  77 CALM      29.81F
L.A. AIRPORT   MOCLDY    53  41  63 NW7       29.82F
SAN DIEGO      MOCLDY    57  41  55 W14       29.92S
BURBANK        PTCLDY    51  32  48 CALM      29.81F
ONTARIO        MOCLDY    49  41  74 SW8       29.81F
RIVERSIDE      CLOUDY    50  43  77 W14       29.82S
PALM SPRINGS   CLEAR     57  36  45 N10       29.67F
EL CENTRO NAS  LGT RAIN  61  39  44 W35G41    29.77R
IMPERIAL       CLEAR     61  38  42 W9        29.75R
BLYTHE         CLEAR     58  38  47 W20       29.70S
NEEDLES        CLEAR     57  31  37 W9        29.65R
$$

NVZ020-UTZ003-191200-
SOUTHERN NEVADA-UTAH

CITY           SKY/WX    TMP DP  RH WIND       PRES   REMARKS
LAS VEGAS      PTCLDY    51  22  31 SW20G38   29.55R
SALT LAKE CITY SNOW      31  28  89 N16       29.44F VSB 1/2 WCI  20
$$

NMZ009-TXZ055-191200-
NEW MEXICO-WEST TEXAS

CITY           SKY/WX    TMP DP  RH WIND       PRES   REMARKS
ALBUQUERQUE    CLOUDY    48  33  56 S14       29.72F
EL PASO        PTCLDY    56  41  57 SW15      29.82F
$$


........................KEY........................
SKY/WX - SKY CONDITION/WEATHER
TMP    - TEMPERATURE IN FAHRENHEIT
DP     - DEW POINT IN FAHRENHEIT
RH     - RELATIVE HUMIDITY IN PERCENT
WIND   - DIRECTION AND SPEED IN MILES PER HOUR (MPH)
VRB    - VARIABLE WIND DIRECTION
PRES   - MEAN SEA LEVEL PRESSURE IN INCHES OF MERCURY
         F - FALLING PRESSURE   R - RISING PRESSURE
         S - STEADY PRESSURE
VSB    - VISIBILITY IN MILES
HX     - HEAT INDEX IN FAHRENHEIT
WCI    - WIND CHILL INDEX IN FAHRENHEIT
TC     - TEMPERATURE IN CELSIUS WHICH IS ALSO KNOWN AS
         TEMPERATURE IN CENTIGRADE
AFB    - AIR FORCE BASE
         LUKE AFB IS LUKE AIR FORCE BASE
         DAVIS-MONTHAN IS DAVIS-MONTHAN AIR FORCE BASE
NAS    - NAVAL AIR STATION
         EL CENTRO NAS IS EL CENTRO NAVAL AIR STATION
N/A    - NOT AVAILABLE





USA.gov is the U.S. government's official web portal to all federal, state and local government web resources and services.